Location: Central Falls
(41.8900°N, 71.3929°W)
Time: 10:57:58
(UTC+00:00)

A-11 Canister half - Pass Details

Date: 06 December 2023
Orbit: 1512 x 1687 km, 47.2° (Epoch: 20 February)

Event Time Altitude Azimuth Distance (km) Brightness Sun altitude
Rises 09:33:33 0° 293° (WNW) 4,838 - -26.2°
Reaches altitude 10° 09:36:38 10° 294° (WNW) 3,873 - -25.6°
Exits shadow 09:41:56 38° 296° (WNW) 2,356 9.4 -24.7°
Maximum altitude 09:46:40 87° 24° (NNE) 1,676 9.1 -23.8°
Drops below altitude 10° 09:56:53 10° 115° (ESE) 3,948 12.2 -21.9°
Sets 10:00:04 0° 116° (ESE) 4,935 13.0 -21.4°
